"Pseudo-MPEC" for P10OVOI

Created 2019 Jun 20 19:07:21 UT using Find_Orb

Click here for an explanation of pseudo-MPECs

 
 Astrometry: 
     P10OVOI  C2019 06 10`oxIdq/AJPWmJbvUF[_pnBD(:GxtvAstrometry^DN..yq)#G:J'F51
     P10OVOI  C2019 06 10dhjax6v]`jY+rsRJH(clVK/v]2Dx\KbKo##`y`Fj@+m7A;?^aO/;F51
     P10OVOI  C2019 06 10^+yJ)w-/_2Xc5O?,IJ#qxf5\Neki#PhN4e5C%GUh6redacted;t*F51
     P10OVOI KC2019 06 12emkiqH`3FLI(hMDEW2MkRbhWcDySr]??N.6PnJvtMXuo_click?:H21
     P10OVOI KC2019 06 12=+hb]*Q:HOm!!Qt@Y\0here0PZfor`%a?VXsKuX9^wi0yr$!MUuGH21
     P10OVOI KC2019 06 12h2Wxl9AS2udjn5fM($C%GS%?1Zl@/m/AJa^T%Jfexplanation!4H21

Station data:
(F51) Pan-STARRS 1, Haleakala  (N20.707235 W156.255910)  US/Hawaii.
   Observers N. Primak, A. Schultz, S. Watters, J. Thiel, T. Goggia. Measurer
   PS1 Science Consortium. 1.8-m Ritchey-Chrétien + CCD.
(H21) Astronomical Research Observatory, Westfield  (N39.483057 W87.968270)
   US/Illinois. 0.76-m f/3.0 astrograph + CCD.

Orbital elements:  P10OVOI
   Perihelion 2018 May 30.010849 +/- 288 TT =  0:15:37 (JD 2458268.510849)
Epoch 2019 Jun 12.0 TT = JDT 2458646.5   Earth MOID: 0.6250   Ma: 0.0021
M 145.51758270 +/- 100              (J2000 ecliptic)          AutoNEOCP
n   0.38497819 +/- 0.0966           Peri.  313.13739 +/- 58
a   1.87145170 +/- 0.313            Node   143.34471 +/- 23
e   0.1582330 +/- 0.154             Incl.   16.33009 +/- 5.7
P   2.56/935.10d           H 18.5   G  0.15   U 11.2  SR
q 1.57532620 +/- 0.208    Q 2.16757720 +/- 0.8
From 6 observations 2019 June 10-12 (40.0 hr); mean residual 0".38
Residuals in arcseconds: 
190610 F51  .11-  .52+    190610 F51  .13+  .54-    190612 H21  .33+  .10+    
190610 F51  .02-  .01+    190612 H21  .49+  .23+    190612 H21  .82-  .31-    

Ephemerides (geocentric):
Date (UTC) HH   RA              Dec         delta   r     elong  mag " sig PA
---- -- -- --  -------------   -----------  ------ ------ -----  --- ---- ---
2019 06 20 19  16 15 34.927   +06 10 27.04  1.2430 2.1353 141.7 21.5  403 137
2019 06 20 20  16 15 32.703   +06 10 07.78  1.2432 2.1354 141.7 21.5  407 137
2019 06 20 21  16 15 30.481   +06 09 48.49  1.2435 2.1354 141.6 21.5  410 136
2019 06 20 22  16 15 28.263   +06 09 29.16  1.2437 2.1354 141.6 21.5  414 136
2019 06 20 23  16 15 26.047   +06 09 09.81  1.2439 2.1355 141.6 21.5  418 136
2019 06 21 00  16 15 23.834   +06 08 50.43  1.2441 2.1355 141.5 21.5  421 135
2019 06 21 01  16 15 21.624   +06 08 31.02  1.2444 2.1355 141.5 21.5  425 135
2019 06 21 02  16 15 19.416   +06 08 11.58  1.2446 2.1356 141.5 21.5  428 135
2019 06 21 03  16 15 17.211   +06 07 52.12  1.2448 2.1356 141.4 21.5  432 134
2019 06 21 04  16 15 15.009   +06 07 32.62  1.2450 2.1356 141.4 21.5  436 134
2019 06 21 05  16 15 12.810   +06 07 13.10  1.2453 2.1357 141.4 21.5  439 134
2019 06 21 06  16 15 10.613   +06 06 53.54  1.2455 2.1357 141.4 21.5  443 133
2019 06 21 07  16 15 08.419   +06 06 33.96  1.2457 2.1357 141.3 21.5  447 133
2019 06 21 08  16 15 06.228   +06 06 14.35  1.2459 2.1358 141.3 21.5  450 133
2019 06 21 09  16 15 04.040   +06 05 54.71  1.2462 2.1358 141.3 21.5  454 133
2019 06 21 10  16 15 01.855   +06 05 35.04  1.2464 2.1358 141.2 21.6  458 132
2019 06 21 11  16 14 59.672   +06 05 15.34  1.2466 2.1359 141.2 21.6  462 132
2019 06 21 12  16 14 57.492   +06 04 55.61  1.2469 2.1359 141.2 21.6  465 132
2019 06 21 13  16 14 55.315   +06 04 35.86  1.2471 2.1359 141.2 21.6  469 131
2019 06 21 14  16 14 53.140   +06 04 16.08  1.2473 2.1360 141.1 21.6  473 131
2019 06 21 15  16 14 50.969   +06 03 56.26  1.2475 2.1360 141.1 21.6  477 131
2019 06 21 16  16 14 48.800   +06 03 36.42  1.2478 2.1360 141.1 21.6  481 130
2019 06 21 17  16 14 46.634   +06 03 16.55  1.2480 2.1361 141.0 21.6  485 130
2019 06 21 18  16 14 44.471   +06 02 56.66  1.2482 2.1361 141.0 21.6  488 129
2019 06 21 19  16 14 42.310   +06 02 36.73  1.2485 2.1361 141.0 21.6  492 129
2019 06 21 20  16 14 40.153   +06 02 16.78  1.2487 2.1362 141.0 21.6  496 129
2019 06 21 21  16 14 37.998   +06 01 56.79  1.2489 2.1362 140.9 21.6  500 128
2019 06 21 22  16 14 35.846   +06 01 36.78  1.2492 2.1362 140.9 21.6  504 128
2019 06 21 23  16 14 33.697   +06 01 16.74  1.2494 2.1363 140.9 21.6  508 128
2019 06 22 00  16 14 31.551   +06 00 56.68  1.2496 2.1363 140.8 21.6  512 127
2019 06 22 01  16 14 29.407   +06 00 36.58  1.2499 2.1363 140.8 21.6  516 127
2019 06 22 02  16 14 27.267   +06 00 16.46  1.2501 2.1363 140.8 21.6  520 127
2019 06 22 03  16 14 25.129   +05 59 56.30  1.2503 2.1364 140.8 21.6  524 126
2019 06 22 04  16 14 22.994   +05 59 36.12  1.2506 2.1364 140.7 21.6  528 126
2019 06 22 05  16 14 20.862   +05 59 15.92  1.2508 2.1364 140.7 21.6  532 126
2019 06 22 06  16 14 18.732   +05 58 55.68  1.2510 2.1365 140.7 21.6  536 125
2019 06 22 07  16 14 16.606   +05 58 35.42  1.2513 2.1365 140.6 21.6  540 125
2019 06 22 08  16 14 14.482   +05 58 15.12  1.2515 2.1365 140.6 21.6  544 124
2019 06 22 09  16 14 12.361   +05 57 54.80  1.2517 2.1366 140.6 21.6  548 124
2019 06 22 10  16 14 10.243   +05 57 34.46  1.2520 2.1366 140.5 21.6  553 124
2019 06 22 11  16 14 08.128   +05 57 14.08  1.2522 2.1366 140.5 21.6  557 123
2019 06 22 12  16 14 06.016   +05 56 53.68  1.2524 2.1367 140.5 21.6  561 123
2019 06 22 13  16 14 03.906   +05 56 33.24  1.2527 2.1367 140.5 21.6  565 123
2019 06 22 14  16 14 01.800   +05 56 12.79  1.2529 2.1367 140.4 21.6  569 122
2019 06 22 15  16 13 59.696   +05 55 52.30  1.2531 2.1368 140.4 21.6  574 122
2019 06 22 16  16 13 57.595   +05 55 31.78  1.2534 2.1368 140.4 21.6  578 122
2019 06 22 17  16 13 55.498   +05 55 11.24  1.2536 2.1368 140.3 21.6  582 121
2019 06 22 18  16 13 53.402   +05 54 50.67  1.2539 2.1369 140.3 21.6  586 121